N3ATE Weather Reports


time (UTC)temp
C
wind
direction
speed
KPH
gust
KPH
rain 1hr
cm
rain 24hr
cm
rain mn
cm
humidity
%
barometer
mb
20260504190046 21 227 8.0 16.1 0.00 0.00 0.00 48 1006.7
20260504184508 20 209 8.0 19.3 0.00 0.00 0.00 48 1007.0
20260504183035 20 208 11.3 20.9 0.00 0.00 0.00 48 1007.1
20260504181502 20 248 8.0 20.9 0.00 0.00 0.00 50 1007.3
20260504180026 20 211 6.4 24.1 0.00 0.00 0.00 49 1007.5
20260504174555 20 205 9.7 20.9 0.00 0.00 0.00 48 1007.7
20260504173017 19 199 9.7 22.5 0.00 0.00 0.00 48 1007.8
20260504171534 19 225 11.3 20.9 0.00 0.00 0.00 48 1008.1
20260504160106 17 215 6.4 20.9 0.00 0.00 0.00 54 1009.2
20260504100120 2 273 0.0 0.0 0.00 0.00 0.00 83 1010.9
20260504081532 5 273 0.0 0.0 0.00 0.00 0.00 76 1011.3
20260504044605 8 260 0.0 0.0 0.00 0.00 0.00 65 1011.3
20260504043029 7 360 0.0 0.0 0.00 0.00 0.00 66 1011.2
20260504041559 8 360 0.0 1.6 0.00 0.00 0.00 66 1011.1
20260504040021 8 360 0.0 3.2 0.00 0.00 0.00 65 1011.0
20260504034536 8 262 0.0 3.2 0.00 0.00 0.00 65 1010.9
20260504033116 8 360 0.0 3.2 0.00 0.00 0.00 65 1010.9
20260504031529 9 263 0.0 4.8 0.00 0.00 0.00 61 1010.9
20260504030035 9 263 0.0 0.0 0.00 0.00 0.00 60 1010.7
20260504024508 10 263 0.0 4.8 0.00 0.00 0.00 59 1010.7
20260504023031 10 263 1.6 4.8 0.00 0.00 0.00 59 1010.8
20260504021556 10 259 0.0 0.0 0.00 0.00 0.00 59 1010.9
20260504020016 10 259 0.0 0.0 0.00 0.00 0.00 58 1010.9
20260504014545 10 259 0.0 0.0 0.00 0.00 0.00 57 1010.8
20260504013009 10 259 0.0 0.0 0.00 0.00 0.00 57 1010.7
20260504011541 10 259 0.0 0.0 0.00 0.00 0.00 56 1010.5
20260504010004 10 259 0.0 0.0 0.00 0.00 0.00 56 1010.3
20260504004543 11 259 0.0 0.0 0.00 0.00 0.00 53 1010.3
20260504003047 11 259 0.0 1.6 0.00 0.00 0.00 52 1010.2
20260504001513 12 360 1.6 6.4 0.00 0.00 0.00 50 1010.1
20260504000043 12 265 1.6 6.4 0.00 0.00 0.00 50 1010.0
20260503234604 12 258 0.0 12.9 0.00 0.00 0.00 49 1009.8
20260503233030 13 269 0.0 6.4 0.00 0.00 0.00 48 1009.7
20260503231551 13 254 1.6 12.9 0.00 0.00 0.00 47 1009.7
20260503230003 13 360 4.8 16.1 0.00 0.00 0.00 47 1009.6
20260503224535 13 360 4.8 20.9 0.00 0.00 0.00 46 1009.6
20260503223103 14 360 4.8 20.9 0.00 0.00 0.00 46 1009.6
20260503221529 13 261 3.2 12.9 0.00 0.00 0.00 45 1009.7
20260503220101 14 270 6.4 17.7 0.00 0.00 0.00 45 1009.7
20260503214523 13 260 4.8 17.7 0.00 0.00 0.00 48 1009.7
20260503213055 15 258 9.7 17.7 0.00 0.00 0.00 46 1009.5
20260503211534 14 334 6.4 19.3 0.00 0.00 0.00 46 1009.4
20260503210050 14 360 9.7 19.3 0.00 0.00 0.00 45 1009.4
20260503204516 13 360 3.2 19.3 0.00 0.00 0.00 44 1009.4
20260503203042 14 255 8.0 20.9 0.00 0.00 0.00 45 1009.4
20260503201600 14 360 4.8 16.1 0.00 0.00 0.00 46 1009.5
20260503200020 13 360 3.2 19.3 0.00 0.00 0.00 45 1009.7
20260503194543 13 229 4.8 20.9 0.00 0.00 0.00 45 1009.9
20260503193105 13 360 9.7 17.7 0.00 0.00 0.00 45 1010.3
20260503191532 14 253 9.7 19.3 0.00 0.00 0.00 45 1010.3